カタログに戻る

THORAD DELTA 1 DEB

運用中LEO
NORAD 42610·DEBRIS·🇺🇸 United States

打ち上げ Nov 15, 1974 から Vandenberg Space Force Base

Loading…

次のパス (今後24時間)

TLE

古いSource: Space-Track

元期: Sep 3, 2026, 08:23 UTC

1 42610U 74089GB  26246.34945286 -.00000036  00000-0  37711-4 0  9995
2 42610 101.3767 107.8275 0079473 341.3862  18.4303 12.40375480578897

AllMySatでTHORAD DELTA 1 DEBをリアルタイム追跡

Download on the App Store